Regional Weather Roundup
Issued by NWS

Home | Current Version | Previous Version | Graphics & Text | Print | Product List | Glossary On
Versions: 1 2 3 4 5 6 7 8 9 10 11 12 13 14 15 16 17 18 19 20 21 22 23 24 25 26 27 28 29 30 31 32 33 34 35 36 37 38 39 40 41 42 43 44 45 46 47 48 49 50
000
ASUS43 KMKX 231511
RWRWI

WISCONSIN REGIONAL WEATHER ROUNDUP
NATIONAL WEATHER SERVICE MILWAUKEE/SULLIVAN WI
1000 AM CDT WED APR 23 2014

NOTE: "FAIR" INDICATES FEW OR NO CLOUDS BELOW 12,000 FEET WITH NO
SIGNIFICANT WEATHER AND/OR OBSTRUCTIONS TO VISIBILITY.

WIZ001-002-006>008-014>016-023>028-231600-
NORTHWEST WISCONSIN

CITY           SKY/WX    TMP DP  RH WIND       PRES   REMARKS
SUPERIOR ARPT  CLOUDY    37  30  77 NE7       30.15S WCI  31
ASHLAND        PTSUNNY   42  30  62 N6        30.15F
HAYWARD        CLOUDY    44  24  45 S10       30.13S
SIREN          CLOUDY    46  25  43 S14       30.12R
RICE LAKE      CLOUDY    43  28  57 SE10      30.14F
LADYSMITH      CLOUDY    45  28  52 SE7       30.15F
EAU CLAIRE     CLOUDY    46  26  45 SE12      30.12F
MENOMONIE      CLOUDY    46  28  49 SE13      30.13F
NEW RICHMOND   CLOUDY    45  27  49 S9        30.11S
OSCEOLA        CLOUDY    46  28  47 SE13      30.13S
$$

WIZ003>005-009-010-017-018-231600-
NORTH CENTRAL WISCONSIN

CITY           SKY/WX    TMP DP  RH WIND       PRES   REMARKS
WOODRUFF       PTSUNNY   45  27  50 E7        30.13S
RHINELANDER    PTSUNNY   42  25  50 E7        30.13F
EAGLE RIVER    MOSUNNY   42  23  48 E3        30.14F
LAND O LAKES   MOSUNNY   43  25  48 NE3       30.15F
PHILLIPS       CLOUDY    42  26  52 SE7       30.13R
TOMAHAWK       PTSUNNY   43  25  50 CALM      30.14S
MEDFORD        CLOUDY    41  26  55 SE8       30.15R
MERRILL        CLOUDY    42  26  53 E3        30.15R
$$

WIZ029-030-035-036-043>047-231600-
CENTRAL WISCONSIN

CITY           SKY/WX    TMP DP  RH WIND       PRES   REMARKS
WAUSAU         PTSUNNY   42  25  50 SE7       30.14S
MOSINEE        NOT AVBL
MARSHFIELD     PTSUNNY   45  27  49 SE10      30.15S
STEVENS POINT  PTSUNNY   40  22  48 E7        30.17S
WAUPACA        PTSUNNY   45  25  45 E6        30.18F
WAUTOMA        PTSUNNY   44  27  51 CALM      30.18F
WISC RAPIDS    PTSUNNY   45  24  43 VRB3      30.18S
CAMP DOUGLAS   PTSUNNY   46  27  46 VRB5      30.17S
$$

WIZ011>013-019>022-031-037>040-048>050-231600-
NORTHEAST WISCONSIN

CITY           SKY/WX    TMP DP  RH WIND       PRES   REMARKS
ANTIGO         PTSUNNY   40  26  56 NE6       30.15S
STURGEON BAY   SUNNY     39  25  56 NW7       30.20S WCI  34
GREEN BAY      MOSUNNY   41  28  60 NE13      30.19S
MANITOWOC      SUNNY     42  26  53 NE7       30.19S
APPLETON       PTSUNNY   41  25  52 E6        30.18F
CLINTONVILLE   PTSUNNY   43  27  52 NE6       30.18S
OSHKOSH        MOSUNNY   41  26  55 NE7       30.18S
$$

WIZ032>034-041-042-053>061-231600-
SOUTHWEST WISCONSIN

CITY           SKY/WX    TMP DP  RH WIND       PRES   REMARKS
LA CROSSE      PTSUNNY   48  28  46 S12       30.15F
SPARTA         PTSUNNY   47  25  42 E8        30.16F
VIROQUA        FAIR      44  28  54 SE13      30.14S
BOSCOBEL       PTSUNNY   47  28  47 S6        30.17F
PRAIRIE DU CHI CLOUDY    45  28  52 SE9       30.16S
PLATTEVILLE    FAIR      44  30  58 SE7       30.17S
$$

WIZ056-057-062-063-064-067-068-231600-
SOUTH CENTRAL WISCONSIN

CITY           SKY/WX    TMP DP  RH WIND       PRES   REMARKS
BARABOO/DELLS  MOSUNNY   44  26  48 CALM      30.16F
LONE ROCK      MOSUNNY   46  28  49 SE5       30.17F
WATERTOWN      SUNNY     43  29  56 E5        30.16S
MADISON        PTSUNNY   45  27  49 VRB5      30.17S
MIDDLETON      FAIR      46  24  41 SE6       30.18R
MONROE         SUNNY     45  28  52 E8        30.16S
JANESVILLE     SUNNY     45  27  49 E6        30.17S
$$

WIZ051-052-058>065-066-070>072-231600-
SOUTHEAST WISCONSIN

CITY           SKY/WX    TMP DP  RH WIND       PRES   REMARKS
MILWAUKEE      MOSUNNY   41  26  55 NE9       30.19S
WAUKESHA       SUNNY     41  27  56 E8        30.18S
MILWAUKEE/TIMM SUNNY     43  21  42 NE9       30.19S
RACINE         SUNNY     43  27  53 N10       30.20S
BURLINGTON     SUNNY     42  28  57 NE6       30.17S
KENOSHA        SUNNY     44  27  51 E10       30.19R
FOND DU LAC    MOSUNNY   43  27  53 E6        30.18S
SHEBOYGAN      MOSUNNY   43  26  51 NE9       30.18S
WEST BEND      MOSUNNY   43  23  45 NE3       30.18R
JUNEAU         SUNNY     43  22  43 E9        30.18F
$$

LSZ147-162-231600-
LAKE SUPERIOR

STATION/POSITION TIME  TEMP    WIND        PRES    WAVE
                       AIR SEA DIR/SP/G            HT/PER
                 (UTC) (F)     (DEG/KT/KT) (MB)    (FT/S)
DEVILS ISLAND    1500   38     120/  6/  7 1021.8F
PORT WING        1400   31     300/  1/  3 1021.0F
SAXON HARBOR     1400             CALM     1021.3F
$$

LMZ867-665-643>646-231600-
LAKE MICHIGAN

STATION/POSITION TIME  TEMP    WIND        PRES    WAVE
                       AIR SEA DIR/SP/G            HT/PER
                 (UTC) (F)     (DEG/KT/KT) (MB)    (FT/S)
NORTHPORT PIER   1400   33     310/  7/  9 1022.4S
SISTER BAY       1439   38     360/ 12/ 13   N/A
KEWAUNEE LAKESHO 1400   39      30/  6/  7 1022.9R
SHEBOYGAN LAKESH 1500   37      20/ 12/ 13 1023.1R
PORT WASHINGTON  1400   40      60/  9/ 13 1022.4S
MILWAUKEE LAKESH 1400   37      30/ 10/ 13   N/A
KENOSHA   LAKESH 1500   37      40/  8/ 10   N/A
$$

TC  - TEMPERATURE IN CELSIUS
VSB - VISIBILITY IN STATUTE MILES
WCI - WIND CHILL INDEX
HX  - HEAT INDEX




USA.gov is the U.S. government's official web portal to all federal, state and local government web resources and services.